This is the latest recevied weather packets stored in our database for station/object K1NOT-WX. If no packets are shown the sender has not sent any weather packets the latest 10 day(s).
| Time | Temp. | Humidity | Pressure | Rain* | Wind** | Luminosity | Snow |
|---|---|---|---|---|---|---|---|
| 1777601532 | 19.44° C | 59% | 1007.4 hPa | 0 mm | - | - | - |
| 1777600632 | 20° C | 58% | 1007.1 hPa | 0 mm | - | - | - |
| 1777599739 | 19.44° C | 58% | 1007.4 hPa | 0 mm | - | - | - |
| 1777598832 | 19.44° C | 58% | 1007.4 hPa | 0 mm | - | - | - |
| 1777597932 | 20.56° C | 56% | 1007.4 hPa | 0 mm | - | - | - |
| 1777597032 | 21.11° C | 53% | 1007.8 hPa | 0 mm | - | - | - |
| 1777596132 | 21.67° C | 45% | 1007.8 hPa | 0 mm | - | - | - |
| 1777595232 | 21.67° C | 51% | 1007.8 hPa | 0 mm | - | - | - |
| 1777594332 | 22.22° C | 44% | 1007.8 hPa | 0 mm | - | - | - |
| 1777593432 | 21.67° C | 45% | 1008.1 hPa | 0 mm | - | - | - |
| 1777592532 | 21.67° C | 46% | 1008.5 hPa | 0 mm | - | - | - |
| 1777591632 | 21.67° C | 44% | 1008.5 hPa | 0 mm | - | - | - |
| 1777590732 | 22.22° C | 49% | 1008.5 hPa | 0 mm | - | - | - |
| 1777589832 | 21.11° C | 50% | 1008.5 hPa | 0 mm | - | - | - |
| 1777588932 | 21.11° C | 50% | 1008.8 hPa | 0 mm | - | - | - |
| 1777588032 | 20.56° C | 51% | 1009.1 hPa | 0 mm | - | - | - |
| 1777587132 | 20.56° C | 51% | 1009.5 hPa | 0 mm | - | - | - |
| 1777586232 | 20.56° C | 54% | 1009.1 hPa | 0 mm | - | - | - |
| 1777585332 | 20° C | 58% | 1009.5 hPa | 0 mm | - | - | - |
| 1777584432 | 18.89° C | 60% | 1009.5 hPa | 0 mm | - | - | - |
| 1777583532 | 19.44° C | 58% | 1010.2 hPa | 0 mm | - | - | - |
| 1777582632 | 18.33° C | 60% | 1010.2 hPa | 0 mm | - | - | - |
| 1777581732 | 18.33° C | 60% | 1010.2 hPa | 0 mm | - | - | - |
| 1777580832 | 18.89° C | 60% | 1010.2 hPa | 0 mm | - | - | - |
| 1777579935 | 19.44° C | 60% | 1010.2 hPa | 0 mm | - | - | - |
* Rain latest hour (hover to see other rain measurements)
** Current wind speed in m/s (hover to see current wind gust speed)